TimeEDT,TemperatureF,Dew PointF,Humidity,Sea Level PressureIn,VisibilityMPH,Wind Direction,Wind SpeedMPH,Gust SpeedMPH,PrecipitationIn,Events,Conditions,WindDirDegrees,DateUTC
12:51 AM,63.0,57.9,84,29.86,10.0,ESE,9.2,-,0.00,,Overcast,110,2012-10-19 04:51:00
1:33 AM,62.6,59.0,88,29.84,10.0,SE,9.2,-,0.01,Rain,Light Rain,130,2012-10-19 05:33:00
1:51 AM,63.0,59.0,87,29.83,10.0,SE,8.1,18.4,0.01,Rain,Light Rain,130,2012-10-19 05:51:00
2:16 AM,62.6,60.8,94,29.82,10.0,SE,11.5,21.9,0.00,,Overcast,140,2012-10-19 06:16:00
2:51 AM,64.0,61.0,90,29.81,10.0,South,5.8,-,0.00,,Overcast,170,2012-10-19 06:51:00
3:51 AM,60.1,59.0,96,29.83,2.5,West,8.1,-,0.04,Rain,Heavy Rain,260,2012-10-19 07:51:00
4:16 AM,60.8,57.2,88,29.82,2.0,SE,5.8,-,0.48,Rain,Heavy Rain,140,2012-10-19 08:16:00
4:34 AM,59.0,57.2,94,29.82,4.0,SE,4.6,-,0.62,Rain,Rain,130,2012-10-19 08:34:00
4:51 AM,60.1,57.9,93,29.81,7.0,East,4.6,-,0.65,Rain,Light Rain,90,2012-10-19 08:51:00
5:51 AM,60.1,59.0,96,29.80,5.0,East,5.8,-,0.03,Rain,Light Rain,80,2012-10-19 09:51:00
6:51 AM,60.1,59.0,96,29.79,1.0,East,6.9,-,0.08,Rain,Light Rain,80,2012-10-19 10:51:00
7:22 AM,60.8,57.2,88,29.77,2.0,East,8.1,-,0.03,Rain,Light Rain,80,2012-10-19 11:22:00
7:51 AM,60.1,59.0,96,29.77,2.0,East,9.2,-,0.06,Rain,Light Rain,80,2012-10-19 11:51:00
8:22 AM,60.8,59.0,94,29.76,2.0,East,8.1,-,0.01,Rain,Light Rain,80,2012-10-19 12:22:00
8:31 AM,60.8,59.0,94,29.76,2.0,East,8.1,-,0.02,Rain,Rain,90,2012-10-19 12:31:00
8:51 AM,61.0,60.1,97,29.77,2.0,Calm,Calm,-,0.03,,Overcast,0,2012-10-19 12:51:00
9:06 AM,62.6,60.8,94,29.78,2.0,Calm,Calm,-,N/A,,Overcast,0,2012-10-19 13:06:00
9:38 AM,64.4,62.6,94,29.75,5.0,SE,6.9,-,0.00,,Overcast,140,2012-10-19 13:38:00
9:51 AM,64.9,63.0,93,29.77,7.0,SSE,6.9,16.1,0.00,,Overcast,160,2012-10-19 13:51:00
10:32 AM,66.2,64.4,94,29.76,10.0,SSW,5.8,-,0.00,,Overcast,210,2012-10-19 14:32:00
10:51 AM,64.9,64.0,97,29.75,5.0,Calm,Calm,-,0.00,Rain,Light Rain,0,2012-10-19 14:51:00
11:51 AM,69.1,64.0,84,29.74,10.0,SE,9.2,-,0.00,,Overcast,140,2012-10-19 15:51:00
12:26 PM,69.8,64.4,83,29.73,10.0,SSE,9.2,-,0.00,Rain,Light Rain,160,2012-10-19 16:26:00
12:51 PM,69.1,64.0,84,29.73,10.0,South,15.0,-,0.00,,Overcast,170,2012-10-19 16:51:00
1:07 PM,69.8,62.6,78,29.72,10.0,SSE,15.0,-,N/A,,Overcast,160,2012-10-19 17:07:00
1:51 PM,69.1,63.0,81,29.70,10.0,South,10.4,-,N/A,,Overcast,170,2012-10-19 17:51:00
2:17 PM,69.8,62.6,78,29.69,10.0,South,9.2,-,N/A,,Mostly Cloudy,170,2012-10-19 18:17:00
2:28 PM,71.6,62.6,73,29.69,10.0,South,10.4,18.4,N/A,,Scattered Clouds,170,2012-10-19 18:28:00
2:51 PM,72.0,64.0,76,29.68,10.0,South,12.7,-,N/A,,Partly Cloudy,180,2012-10-19 18:51:00
3:51 PM,72.0,64.0,76,29.66,10.0,South,9.2,-,N/A,,Scattered Clouds,170,2012-10-19 19:51:00
4:51 PM,72.0,63.0,73,29.65,10.0,Variable,6.9,-,N/A,,Clear,0,2012-10-19 20:51:00
5:51 PM,70.0,63.0,78,29.64,10.0,SSE,9.2,-,N/A,,Partly Cloudy,150,2012-10-19 21:51:00
6:51 PM,69.1,64.0,84,29.63,10.0,SE,4.6,-,N/A,,Mostly Cloudy,140,2012-10-19 22:51:00
7:51 PM,68.0,64.0,87,29.63,10.0,South,6.9,-,0.06,,Mostly Cloudy,170,2012-10-19 23:51:00
8:51 PM,66.9,64.0,90,29.63,10.0,SSE,3.5,-,N/A,,Scattered Clouds,150,2012-10-20 00:51:00
9:11 PM,66.2,64.4,94,29.65,10.0,SSE,3.5,-,N/A,,Overcast,160,2012-10-20 01:11:00
9:51 PM,68.0,64.0,87,29.64,10.0,SSE,10.4,-,N/A,,Scattered Clouds,160,2012-10-20 01:51:00
9:59 PM,68.0,64.4,88,29.65,10.0,South,10.4,-,N/A,Thunderstorm,Thunderstorm,170,2012-10-20 01:59:00
10:23 PM,62.6,59.0,88,29.67,3.0,SW,6.9,20.7,N/A,Rain-Thunderstorm,Light Thunderstorms and Rain,220,2012-10-20 02:23:00
10:33 PM,60.8,60.8,100,29.68,6.0,WSW,4.6,-,N/A,Rain,Light Rain,240,2012-10-20 02:33:00
10:51 PM,61.0,59.0,93,29.66,10.0,Calm,Calm,-,N/A,Rain,Light Rain,0,2012-10-20 02:51:00
11:51 PM,61.0,59.0,93,29.66,10.0,East,3.5,-,0.00,,Overcast,90,2012-10-20 03:51:00